Location: Caltech
(34.1382°N, 118.1253°W)
Time: 14:47:29
(UTC-07:00)

Cosmos 1975 - Visible Passes

Search period start: 31 August 2015 00:00
Search period end: 10 September 2015 00:00
Orbit: 547 x 568 km, 82.5° (Epoch: 31 August)

Date Brightness Start Highest point End Pass type
(mag) Time Alt. Az. Time Alt. Az. Time Alt. Az.
31 Aug 5.4 20:26:53 10° SW 20:30:14 25° WNW 20:33:32 10° NNW visible
01 Sep 5.7 20:25:18 10° SW 20:28:26 21° WNW 20:31:29 10° NNW visible
02 Sep 6.0 20:23:49 10° WSW 20:26:38 18° WNW 20:29:22 10° NNW visible
03 Sep 6.2 20:22:23 10° WSW 20:24:52 15° WNW 20:27:11 10° NW visible
04 Sep 6.4 20:21:06 10° WSW 20:23:05 13° WNW 20:24:52 10° NW visible
05 Sep 6.7 20:20:06 10° W 20:21:19 11° WNW 20:22:16 10° WNW visible
